Dublin, Ireland

1:04 AM IST on July 23, 2017 (GMT +0100)
Dublin International

Weather History for EIDW - June, 2012

Change the Weather History Date:

Tuesday, June 26, 2012

  Actual Average Record
Temperature  
Mean Temperature 62 °F -  
Max Temperature 71 °F 66 °F 73 °F (2011)
Min Temperature 52 °F 52 °F 38 °F (2017)
Degree Days  
Heating Degree Days 4    
Growing Degree Days 12 (Base 50)    
Moisture  
Dew Point 57 °F    
Average Humidity 84    
Maximum Humidity 100    
Minimum Humidity 66    
Precipitation  
Precipitation 0.00 in 0.07 in - ()
Sea Level Pressure  
Sea Level Pressure 29.99 in    
Wind  
Wind Speed 11 mph ()    
Max Wind Speed 16 mph    
Max Gust Speed -    
Visibility 6.7 miles    
Events Rain    
Averages and records for this station are not official NWS values.
T = Trace of Precipitation, MM = Missing Value Source: Averaged Metar Reports

Daily Weather History Graph

Daily Weather History Graph

Search for Another Location

Airport or City:

Trip Planner

Search our weather history database for the weather conditions in past years. The results will help you decide how hot, cold, wet, or windy it might be!

Date:

Astronomy

Jun. 26, 2012 Rise Set
Actual Time 4:57 AM IST 9:57 PM IST
Civil Twilight 4:05 AM IST 10:50 PM IST
Nautical Twilight 2:31 AM IST 12:23 AM IST
Astronomical Twilight Sun does not set Sun does not set
Moon 1:05 PM IST (6/26) 12:17 AM IST (6/26)
Length of Visible Light 18h 44m
Length of Day
16h 59m
Waxing Crescent, 42% of the Moon is Illuminated
Jun 26
Waxing Crescent
Jun 27
First Quarter
Jul 3
Full
Jul 11
Last Quarter
Jul 19
New

Hourly Weather History & Observations

Time (IST) Temp. Dew Point Humidity Pressure Visibility Wind Dir Wind Speed Gust Speed Precip Events Conditions
12:00 AM 53.6 °F 48.2 °F 82% 30.06 in 6.2 mi SE 11.5 mph - N/A   Mostly Cloudy
12:30 AM 53.6 °F 48.2 °F 82% 30.06 in 6.2 mi SE 10.4 mph - N/A   Mostly Cloudy
1:00 AM 53 °F 50 °F 87% 30.06 in 19 mi ESE 11.2 mph - -   Mostly Cloudy
1:00 AM 53.6 °F 50.0 °F 88% 30.04 in 6.2 mi ESE 10.4 mph - N/A   Mostly Cloudy
1:30 AM 53.6 °F 50.0 °F 88% 30.04 in 6.2 mi ESE 10.4 mph - N/A   Mostly Cloudy
2:00 AM 53.6 °F 50.0 °F 88% 30.04 in 6.2 mi ESE 9.2 mph - N/A   Mostly Cloudy
2:30 AM 53.6 °F 51.8 °F 94% 30.04 in 6.2 mi ESE 10.4 mph - N/A   Mostly Cloudy
3:00 AM 53.6 °F 51.8 °F 94% 30.04 in 6.2 mi ESE 10.4 mph - N/A   Mostly Cloudy
3:30 AM 53.6 °F 51.8 °F 94% 30.01 in 6.2 mi SE 12.7 mph - N/A   Mostly Cloudy
4:00 AM 55.4 °F 50.0 °F 82% 30.01 in 6.2 mi SE 11.5 mph - N/A   Mostly Cloudy
4:30 AM 55.4 °F 50.0 °F 82% 30.01 in 6.2 mi SE 12.7 mph - N/A   Mostly Cloudy
5:00 AM 53.6 °F 51.8 °F 94% 30.01 in 6.2 mi SE 12.7 mph - N/A Rain Light Rain
5:30 AM 53.6 °F 51.8 °F 94% 30.01 in 5.0 mi SE 12.7 mph - N/A Rain Light Rain
6:00 AM 53.6 °F 53.6 °F 100% 29.98 in 5.0 mi SE 12.7 mph - N/A Rain Light Rain
6:30 AM 55.4 °F 53.6 °F 94% 29.98 in 6.2 mi SE 13.8 mph - N/A   Mostly Cloudy
7:00 AM 55 °F 53 °F 91% 30.00 in 10 mi SE 15.7 mph - - Rain Light Rain
7:00 AM 55.4 °F 53.6 °F 94% 29.98 in 6.2 mi SE 15.0 mph - N/A   Mostly Cloudy
7:30 AM 55.4 °F 53.6 °F 94% 29.98 in 5.6 mi SE 15.0 mph - N/A   Light Drizzle
8:00 AM 55.4 °F 53.6 °F 94% 29.98 in 5.6 mi SE 16.1 mph - N/A   Mostly Cloudy
8:30 AM 55.4 °F 53.6 °F 94% 29.98 in 5.6 mi SE 15.0 mph - N/A   Mostly Cloudy
9:00 AM 57.2 °F 55.4 °F 94% 29.98 in 6.2 mi SE 15.0 mph - N/A   Mostly Cloudy
9:30 AM 57.2 °F 55.4 °F 94% 29.98 in 6.2 mi SE 16.1 mph - N/A   Mostly Cloudy
10:00 AM 57.2 °F 55.4 °F 94% 29.98 in 6.2 mi SE 13.8 mph - N/A   Mostly Cloudy
10:30 AM 59.0 °F 55.4 °F 88% 29.98 in 6.2 mi SE 13.8 mph - N/A   Mostly Cloudy
11:00 AM 60.8 °F 57.2 °F 88% 29.98 in 6.2 mi SE 11.5 mph - N/A   Mostly Cloudy
11:30 AM 60.8 °F 57.2 °F 88% 29.98 in 6.2 mi SE 10.4 mph - N/A   Mostly Cloudy
12:00 PM 64.4 °F 59.0 °F 83% 29.98 in 6.2 mi SE 6.9 mph - N/A   Mostly Cloudy
12:30 PM 64.4 °F 59.0 °F 83% 29.98 in 6.2 mi SE 5.8 mph - N/A   Mostly Cloudy
1:00 PM 65 °F 62 °F 86% 29.98 in 19 mi WSW 6.7 mph - - Rain Light Drizzle
1:00 PM 64.4 °F 60.8 °F 88% 29.98 in 6.2 mi WSW 5.8 mph - N/A   Mostly Cloudy
1:30 PM 66.2 °F 60.8 °F 83% 29.98 in 6.2 mi SW 9.2 mph - N/A   Mostly Cloudy
2:00 PM 68.0 °F 60.8 °F 78% 29.98 in 6.2 mi SW 8.1 mph - N/A   Mostly Cloudy
2:30 PM 69.8 °F 60.8 °F 73% 29.98 in 6.2 mi WSW 11.5 mph - N/A   Mostly Cloudy
3:00 PM 69.8 °F 60.8 °F 73% 29.98 in 6.2 mi SW 9.2 mph - N/A   Mostly Cloudy
3:30 PM 69.8 °F 62.6 °F 78% 29.98 in 6.2 mi WSW 11.5 mph - N/A   Mostly Cloudy
4:00 PM 68.0 °F 62.6 °F 83% 29.98 in 6.2 mi SW 11.5 mph - N/A Rain Light Rain Showers
4:30 PM 71.6 °F 62.6 °F 73% 29.95 in 6.2 mi WSW 12.7 mph - N/A   Scattered Clouds
5:00 PM 71.6 °F 60.8 °F 69% 29.95 in 6.2 mi WSW 15.0 mph - N/A   Mostly Cloudy
5:30 PM 69.8 °F 60.8 °F 73% 29.95 in 6.2 mi WSW 10.4 mph - N/A   Mostly Cloudy
6:00 PM 71.6 °F 60.8 °F 69% 29.95 in 6.2 mi SW 10.4 mph - N/A   Mostly Cloudy
6:30 PM 69.8 °F 60.8 °F 73% 29.95 in 6.2 mi West 13.8 mph - N/A   Mostly Cloudy
7:00 PM 70 °F 61 °F 66% 29.96 in 31 mi WSW 11.2 mph - -   Partly Cloudy
7:00 PM 69.8 °F 60.8 °F 73% 29.95 in 6.2 mi WSW 11.5 mph - N/A   Mostly Cloudy
7:30 PM 69.8 °F 62.6 °F 78% 29.95 in 6.2 mi West 8.1 mph - N/A   Scattered Clouds
8:00 PM 68.0 °F 60.8 °F 78% 29.98 in 6.2 mi West 9.2 mph - N/A   Mostly Cloudy
8:30 PM 68.0 °F 60.8 °F 78% 29.98 in 6.2 mi West 13.8 mph - N/A   Mostly Cloudy
9:00 PM 68.0 °F 59.0 °F 73% 29.98 in 6.2 mi West 10.4 mph - N/A   Mostly Cloudy
9:30 PM 68.0 °F 59.0 °F 73% 29.98 in 6.2 mi WSW 11.5 mph - N/A   Mostly Cloudy
10:00 PM 66.2 °F 59.0 °F 78% 29.98 in 6.2 mi West 11.5 mph - N/A   Mostly Cloudy
10:30 PM 66.2 °F 59.0 °F 78% 29.98 in 6.2 mi WSW 10.4 mph - N/A   Mostly Cloudy
11:00 PM 66.2 °F 59.0 °F 78% 29.98 in 6.2 mi WSW 8.1 mph - N/A   Mostly Cloudy
11:30 PM 64.4 °F 59.0 °F 83% 29.98 in 6.2 mi WSW 5.8 mph - N/A   Mostly Cloudy